| time (UTC) | temp C | wind direction | speed KPH | gust KPH | rain 1hr cm | rain 24hr cm | rain mn cm | humidity % | barometer mb |
| 20260504015029 | 13 | 235 | 6.4 | 12.9 | 0.00 | 0.00 | 0.05 | 94 | 1011.6 |
| 20260504014030 | 13 | 240 | 9.7 | 16.1 | 0.00 | 0.00 | 0.05 | 94 | 1011.6 |
| 20260504013029 | 13 | 239 | 9.7 | 14.5 | 0.00 | 0.00 | 0.05 | 94 | 1011.4 |
| 20260504012030 | 13 | 232 | 8.0 | 14.5 | 0.00 | 0.00 | 0.05 | 94 | 1011.6 |
| 20260504011029 | 13 | 222 | 6.4 | 11.3 | 0.00 | 0.00 | 0.05 | 94 | 1011.5 |
| 20260504010030 | 13 | 207 | 6.4 | 11.3 | 0.00 | 0.00 | 0.05 | 94 | 1011.5 |
| 20260504005030 | 13 | 229 | 8.0 | 12.9 | 0.00 | 0.00 | 0.05 | 94 | 1011.4 |
| 20260504004029 | 13 | 240 | 9.7 | 16.1 | 0.00 | 0.00 | 0.05 | 94 | 1011.4 |
| 20260504003029 | 13 | 237 | 11.3 | 17.7 | 0.00 | 0.00 | 0.05 | 94 | 1011.5 |
| 20260504002030 | 13 | 227 | 6.4 | 9.7 | 0.00 | 0.00 | 0.05 | 94 | 1011.5 |
| 20260504001030 | 13 | 229 | 6.4 | 12.9 | 0.00 | 0.00 | 0.05 | 94 | 1011.5 |
| 20260504000029 | 13 | 237 | 11.3 | 16.1 | 0.00 | 0.00 | 0.05 | 94 | 1011.5 |
| 20260503235030 | 13 | 238 | 14.5 | 19.3 | 0.00 | 0.00 | 0.05 | 94 | 1011.6 |
| 20260503234030 | 13 | 245 | 14.5 | 19.3 | 0.00 | 0.00 | 0.05 | 94 | 1011.4 |
| 20260503233029 | 14 | 239 | 9.7 | 16.1 | 0.00 | 0.00 | 0.05 | 93 | 1011.4 |
| 20260503232030 | 14 | 206 | 4.8 | 8.0 | 0.00 | 0.00 | 0.05 | 93 | 1011.4 |
| 20260503231030 | 13 | 227 | 6.4 | 12.9 | 0.00 | 0.00 | 0.05 | 93 | 1011.4 |
| 20260503230030 | 14 | 247 | 9.7 | 12.9 | 0.00 | 0.00 | 0.05 | 93 | 1011.3 |
| 20260503225029 | 14 | 254 | 11.3 | 12.9 | 0.00 | 0.00 | 0.05 | 93 | 1011.3 |
| 20260503224029 | 14 | 271 | 11.3 | 16.1 | 0.00 | 0.00 | 0.05 | 94 | 1011.3 |
| 20260503223030 | 14 | 288 | 8.0 | 11.3 | 0.00 | 0.00 | 0.03 | 93 | 1011.2 |
| 20260503222029 | 14 | 292 | 6.4 | 11.3 | 0.00 | 0.00 | 0.03 | 93 | 1011.2 |
| 20260503221029 | 14 | 274 | 11.3 | 14.5 | 0.00 | 0.00 | 0.03 | 93 | 1011.1 |
| 20260503220029 | 14 | 257 | 14.5 | 17.7 | 0.00 | 0.00 | 0.81 | 93 | 1011.1 |
| 20260503215030 | 15 | 244 | 11.3 | 19.3 | 0.00 | 0.00 | 0.79 | 93 | 1011.0 |
| 20260503214030 | 15 | 217 | 9.7 | 16.1 | 0.00 | 0.00 | 0.74 | 93 | 1011.0 |
| 20260503213030 | 15 | 222 | 8.0 | 16.1 | 0.00 | 0.00 | 0.71 | 93 | 1010.9 |
| 20260503212029 | 15 | 207 | 4.8 | 11.3 | 0.00 | 0.00 | 0.71 | 92 | 1010.9 |
| 20260503211030 | 15 | 196 | 6.4 | 11.3 | 0.00 | 0.00 | 0.71 | 92 | 1011.0 |
| 20260503210029 | 15 | 192 | 3.2 | 9.7 | 0.00 | 0.00 | 0.61 | 92 | 1010.9 |
| 20260503205029 | 15 | 198 | 3.2 | 6.4 | 0.00 | 0.00 | 0.51 | 92 | 1010.9 |
| 20260503204030 | 15 | 183 | 1.6 | 4.8 | 0.00 | 0.00 | 0.51 | 92 | 1010.9 |
| 20260503203030 | 15 | 138 | 0.0 | 4.8 | 0.00 | 0.00 | 0.51 | 92 | 1010.8 |
| 20260503202030 | 15 | 156 | 0.0 | 1.6 | 0.00 | 0.00 | 0.51 | 92 | 1010.8 |
| 20260503201030 | 15 | 156 | 0.0 | 4.8 | 0.00 | 0.00 | 0.51 | 92 | 1010.7 |
| 20260503200029 | 15 | 164 | 0.0 | 4.8 | 0.00 | 0.00 | 0.51 | 92 | 1010.7 |
| 20260503195029 | 15 | 206 | 1.6 | 4.8 | 0.00 | 0.00 | 0.51 | 92 | 1010.7 |
| 20260503194030 | 15 | 153 | 1.6 | 4.8 | 0.00 | 0.00 | 0.51 | 91 | 1010.6 |
| 20260503193029 | 15 | 182 | 1.6 | 4.8 | 0.00 | 0.00 | 0.51 | 91 | 1010.5 |
| 20260503192029 | 15 | 182 | 1.6 | 6.4 | 0.00 | 0.00 | 0.51 | 92 | 1010.5 |
| 20260503191030 | 15 | 178 | 1.6 | 8.0 | 0.00 | 0.00 | 0.51 | 92 | 1010.4 |
| 20260503190030 | 15 | 195 | 4.8 | 11.3 | 0.00 | 0.00 | 0.51 | 92 | 1010.5 |
| 20260503185030 | 15 | 196 | 3.2 | 9.7 | 0.00 | 0.00 | 0.51 | 92 | 1010.3 |
| 20260503184030 | 15 | 192 | 4.8 | 11.3 | 0.00 | 0.00 | 0.51 | 92 | 1010.2 |
| 20260503183029 | 15 | 192 | 3.2 | 11.3 | 0.00 | 0.00 | 0.51 | 92 | 1010.0 |
| 20260503182030 | 15 | 209 | 4.8 | 11.3 | 0.00 | 0.00 | 0.51 | 92 | 1010.0 |
| 20260503181031 | 15 | 197 | 3.2 | 11.3 | 0.00 | 0.00 | 0.51 | 92 | 1009.9 |
| 20260503180029 | 15 | 195 | 3.2 | 8.0 | 0.00 | 0.00 | 0.51 | 93 | 1009.8 |
| 20260503175029 | 15 | 193 | 3.2 | 8.0 | 0.00 | 0.00 | 0.51 | 93 | 1009.8 |
| 20260503174030 | 15 | 195 | 4.8 | 16.1 | 0.00 | 0.00 | 0.51 | 93 | 1009.7 |
| 20260503173030 | 15 | 199 | 4.8 | 11.3 | 0.00 | 0.00 | 0.51 | 93 | 1009.8 |
| 20260503172030 | 15 | 203 | 3.2 | 9.7 | 0.00 | 0.00 | 0.51 | 93 | 1009.7 |
| 20260503171029 | 15 | 206 | 3.2 | 11.3 | 0.00 | 0.00 | 0.51 | 94 | 1009.7 |
| 20260503131029 | 15 | 245 | 14.5 | 17.7 | 0.00 | 0.00 | 0.38 | 93 | 1010.3 |
| 20260503081029 | 16 | 155 | 3.2 | 11.3 | 0.00 | 0.00 | 0.36 | 85 | 1010.1 |
| 20260503072030 | 15 | 142 | 1.6 | 8.0 | 0.00 | 0.00 | 0.36 | 91 | 1010.3 |
| 20260503071030 | 15 | 148 | 1.6 | 6.4 | 0.00 | 0.00 | 0.36 | 91 | 1010.3 |
| 20260503055030 | 13 | 120 | 1.6 | 11.3 | 0.00 | 0.00 | 0.36 | 92 | 1010.3 |
| 20260503054029 | 13 | 134 | 1.6 | 6.4 | 0.00 | 0.00 | 0.36 | 92 | 1010.3 |
| 20260503053029 | 13 | 128 | 0.0 | 11.3 | 0.00 | 0.00 | 0.36 | 92 | 1010.4 |
| 20260503052029 | 13 | 108 | 3.2 | 11.3 | 0.00 | 0.00 | 0.36 | 92 | 1010.4 |
| 20260503051030 | 13 | 38 | 1.6 | 9.7 | 0.00 | 0.00 | 0.36 | 92 | 1010.4 |
| 20260503050030 | 13 | 96 | 1.6 | 8.0 | 0.00 | 0.00 | 0.36 | 92 | 1010.4 |
| 20260503045029 | 13 | 160 | 1.6 | 9.7 | 0.00 | 0.00 | 0.33 | 92 | 1010.5 |
| 20260503044030 | 13 | 352 | 0.0 | 8.0 | 0.00 | 0.00 | 0.33 | 92 | 1010.4 |
| 20260503043030 | 13 | 63 | 0.0 | 11.3 | 0.00 | 0.00 | 0.33 | 92 | 1010.4 |
| 20260503042030 | 13 | 98 | 1.6 | 12.9 | 0.00 | 0.00 | 0.33 | 92 | 1011.0 |
| 20260503041030 | 13 | 56 | 0.0 | 14.5 | 0.00 | 0.00 | 0.33 | 91 | 1011.2 |
| 20260503040029 | 12 | 109 | 3.2 | 9.7 | 0.00 | 0.00 | 0.33 | 91 | 1011.4 |
| 20260503035030 | 13 | 187 | 1.6 | 4.8 | 0.00 | 0.00 | 0.33 | 91 | 1011.6 |
| 20260503034030 | 12 | 114 | 1.6 | 9.7 | 0.00 | 0.00 | 0.33 | 91 | 1011.5 |
| 20260503033030 | 12 | 113 | 3.2 | 9.7 | 0.00 | 0.00 | 0.33 | 91 | 1011.5 |
| 20260503032029 | 12 | 170 | 1.6 | 9.7 | 0.00 | 0.00 | 0.33 | 91 | 1011.5 |
| 20260503031030 | 12 | 112 | 3.2 | 12.9 | 0.00 | 0.00 | 0.33 | 91 | 1011.3 |
| 20260503030030 | 12 | 85 | 1.6 | 9.7 | 0.00 | 0.00 | 0.33 | 91 | 1011.3 |
| 20260503025029 | 12 | 50 | 1.6 | 11.3 | 0.00 | 0.00 | 0.33 | 91 | 1011.4 |
| 20260503024029 | 12 | 132 | 0.0 | 8.0 | 0.00 | 0.00 | 0.33 | 91 | 1011.4 |
| 20260503023030 | 12 | 68 | 1.6 | 14.5 | 0.00 | 0.00 | 0.33 | 91 | 1011.3 |
| 20260503022029 | 12 | 80 | 1.6 | 12.9 | 0.00 | 0.00 | 0.33 | 91 | 1011.4 |
| 20260503021029 | 12 | 39 | 0.0 | 11.3 | 0.00 | 0.00 | 0.33 | 90 | 1011.4 |
| 20260503020030 | 13 | 143 | 0.0 | 9.7 | 0.00 | 0.00 | 0.33 | 90 | 1011.4 |